Chamberlain, SD

10:27 PM CDT on April 21, 2018 (GMT -0500)
Chamberlain

Weather History for K9V9 - October, 2013

Change the Weather History Date:

Sunday, October 13, 2013

  Actual Average Record
Temperature  
Mean Temperature 52 °F -  
Max Temperature 68 °F 62 °F 75 °F (1996)
Min Temperature 39 °F 36 °F 23 °F (2006)
Degree Days  
Heating Degree Days 12    
Growing Degree Days 2 (Base 50)    
Moisture  
Dew Point 34 °F    
Average Humidity 54    
Maximum Humidity 79    
Minimum Humidity 31    
Precipitation  
Precipitation 0.00 in - - ()
Sea Level Pressure  
Sea Level Pressure 30.28 in    
Wind  
Wind Speed 7 mph (SE)    
Max Wind Speed 20 mph    
Max Gust Speed 29 mph    
Averages and records for this station are not official NWS values.
T = Trace of Precipitation, MM = Missing Value Source: NWS Daily Summary

Daily Weather History Graph

Daily Weather History Graph

Search for Another Location

Airport or City:

Astronomy

Oct. 13, 2013 Rise Set
Actual Time 7:49 AM CDT 6:56 PM CDT
Civil Twilight 7:20 AM CDT 7:25 PM CDT
Nautical Twilight 6:47 AM CDT 7:58 PM CDT
Astronomical Twilight 6:13 AM CDT 8:32 PM CDT
Moon 3:58 PM CDT (10/13) 1:50 AM CDT (10/13)
Length of Visible Light 12h 04m
Length of Day
11h 07m
Waxing Gibbous, 69% of the Moon is Illuminated
Oct 13
Waxing Gibbous
Oct 18
Full
Oct 26
Last Quarter
Nov 3
New
Nov 9
First Quarter

Hourly Weather History & Observations

Time (CDT) Temp. Windchill Dew Point Humidity Pressure Visibility Wind Dir Wind Speed Gust Speed Precip Events Conditions
12:52 AM 39.0 °F - 30.0 °F 70% 30.30 in - Calm Calm - N/A   Unknown
1:52 AM 39.0 °F - 33.1 °F 79% 30.31 in - Calm Calm - N/A   Unknown
2:52 AM 39.9 °F 37.8 °F 30.9 °F 70% 30.32 in - SSE 3.5 mph - N/A   Unknown
3:52 AM 39.0 °F 35.7 °F 30.0 °F 70% 30.32 in - South 4.6 mph - N/A   Unknown
4:52 AM 39.0 °F 34.8 °F 30.9 °F 73% 30.33 in - SSE 5.8 mph - N/A   Unknown
5:52 AM 39.9 °F 37.8 °F 34.0 °F 79% 30.33 in - SE 3.5 mph - N/A   Unknown
6:52 AM 42.1 °F - 35.1 °F 76% 30.35 in - Calm Calm - N/A   Unknown
7:52 AM 42.1 °F 38.4 °F 35.1 °F 76% 30.37 in - ENE 5.8 mph - N/A   Unknown
8:52 AM 45.0 °F 42.6 °F 35.1 °F 68% 30.38 in - ESE 4.6 mph - N/A   Unknown
9:52 AM 48.0 °F - 35.1 °F 61% 30.38 in - SE 8.1 mph - N/A   Unknown
10:52 AM 52.0 °F - 33.1 °F 49% 30.38 in - SSE 13.8 mph - N/A   Unknown
11:52 AM 57.9 °F - 30.9 °F 36% 30.35 in - SE 19.6 mph 25.3 mph N/A   Unknown
12:52 PM 60.1 °F - 32.0 °F 35% 30.32 in - SSE 17.3 mph 26.5 mph N/A   Unknown
1:52 PM 61.0 °F - 34.0 °F 36% 30.29 in - SSE 19.6 mph 25.3 mph N/A   Unknown
2:52 PM 66.0 °F - 36.0 °F 33% 30.24 in - SE 15.0 mph 24.2 mph N/A   Unknown
3:52 PM 64.9 °F - 34.0 °F 32% 30.22 in - SSE 18.4 mph 28.8 mph N/A   Unknown
4:52 PM 66.9 °F - 35.1 °F 31% 30.20 in - SE 16.1 mph - N/A   Unknown
5:52 PM 64.9 °F - 33.1 °F 31% 30.17 in - SSE 16.1 mph - N/A   Unknown
6:52 PM 61.0 °F - 36.0 °F 39% 30.19 in - SE 10.4 mph - N/A   Unknown
7:52 PM 57.0 °F - 36.0 °F 45% 30.19 in - SSE 13.8 mph - N/A   Unknown
8:52 PM 52.0 °F - 37.0 °F 57% 30.21 in - ESE 8.1 mph - N/A   Unknown
9:52 PM 53.1 °F - 37.0 °F 55% 30.21 in - SE 11.5 mph - N/A   Unknown
10:52 PM 55.9 °F - 37.0 °F 49% 30.18 in - SSE 17.3 mph - N/A   Unknown
11:52 PM 57.0 °F - 36.0 °F 45% 30.19 in - SSE 15.0 mph - N/A   Unknown